STARLINK-36392, 68115

Orbit data source: Space-Track

STARLINK-36392, 68115 is a payload satellite owned by SpaceX/Seattle (US) in SSO that was launched on Sun, 08 Mar 2026 UTC via an FALCON 9 launch vehicle from the Air Force Western Test Range (AFWTR). Payload-class satellites include a variety of spacecraft equipped with specific instruments for various scientific and technological missions. These include communications satellites like Starlink; space stations such as the ISS; scientific satellites like the Hubble; Earth observation satellites from companies like Planet Labs, Umbra, and HawkEye 360; GPS; miniature CubeSats for education and research; and military/defense satellites.

Loading next visibility...
Identifier
68115, 2026-044Q
Orbit
SSO
Country
Flag of USUS
Related business
Manufacturer
SpaceX/Seattle
Mission
Operational spacecraft
Bus & Motor
STARLINK V2MO, Unknown motor
Mass
575 kg wet, ~530 kg dry
Launch date (UTC)
2026-03-08 (3 months ago)
Launch vehicle
FALCON 9
Launch site
Air Force Western Test Range (AFWTR)
Object type
Payload
Rocket body
Debris
Shape & HBR
Unknown shape, 17.7 m
Radar Cross Section
Large (>1 m²)

Expand to show TLE details & history
Last TLE update: 6 days ago

TLE from 6 days ago
0 STARLINK-36392
1 68115U 26044Q   26154.42746982  .00030509  00000-0  94396-3 0  9998
2 68115  97.2840 114.9407 0002847 103.2397 256.9164 15.33428201 14721
Epoch: 2026-06-03T10:15Z
TLE epoch observation values (Epoch: 2026-06-03T10:15:33.392Z)
Latitude
0.00003°
Longitude
69.16532°
Altitude
469.147 km
Speed
7.631 km/s
True Right ascension
07h 39m 45s
True Declination
0° 00' 00"
Sunlit
Object was in daylight at epoch
Visualization orbit readout
Latitude
Unknown
Longitude
Unknown
Altitude
Unknown
Speed
Unknown
Apparent Right ascension
Unknown
Apparent Declination
Unknown
Sunlit
N/A
Visualization observer readout
Local Sidereal Time
18:50:46
Azimuth
Unknown
Elevation
Unknown
Doppler factor
Unknown
Orbital elements
Apogee altitude
464.483 km
Perigee altitude
460.588 km
Semi-major axis
6,840.673 km
Eccentricity
0.00028
Inclination
97.284°
RAAN
114.9407°
Arg. of periapsis
103.2397°
True anomaly
256.88463°
Mean anomaly
256.9164°
Eccentric anomaly
256.90051°
Mean motion
3.83614 °/min
Orbital period
93.84 mins
BSTAR
0.00094396
Loading maneuver chart data...
Computing Atmospheric mass density...
Loading historical data...
Loading historical data...
Loading historical data...
Loading historical data...
Loading historical data...
Loading historical data...
Loading historical data...

Documentation

Showing up to 5 results
|